TimeAEST,TemperatureF,Dew PointF,Humidity,Sea Level PressureIn,VisibilityMPH,Wind Direction,Wind SpeedMPH,Gust SpeedMPH,PrecipitationIn,Events,Conditions,WindDirDegrees,DateUTC
12:00 AM,75,73,91,29.97,,Calm,Calm,,,,Overcast,,2013-05-21 14:00:00
12:00 AM,75.2,73.4,94,29.95,6.2,Calm,Calm,-,N/A,,Mostly Cloudy,0,2013-05-21 14:00:00
12:30 AM,73.4,73.4,100,29.95,6.2,WNW,3.5,-,N/A,,Mostly Cloudy,290,2013-05-21 14:30:00
1:00 AM,73,72,96,29.96,,Calm,Calm,,,,,,2013-05-21 15:00:00
1:00 AM,73.4,71.6,94,29.95,6.2,Calm,Calm,-,N/A,,Scattered Clouds,0,2013-05-21 15:00:00
1:30 AM,73.4,71.6,94,29.95,6.2,Calm,Calm,-,N/A,,Scattered Clouds,0,2013-05-21 15:30:00
2:00 AM,71.6,71.6,100,29.92,6.2,Calm,Calm,-,N/A,,Scattered Clouds,0,2013-05-21 16:00:00
2:30 AM,71.6,69.8,94,29.92,6.2,Calm,Calm,-,N/A,,Partly Cloudy,0,2013-05-21 16:30:00
3:00 AM,72,71,95,29.91,,Calm,Calm,,,,Overcast,,2013-05-21 17:00:00
3:00 AM,71.6,71.6,100,29.89,6.2,Calm,Calm,-,N/A,,Scattered Clouds,0,2013-05-21 17:00:00
3:30 AM,71.6,71.6,100,29.89,6.2,Calm,Calm,-,N/A,,Mostly Cloudy,0,2013-05-21 17:30:00
3:39 AM,73.4,71.6,94,29.89,6.2,Calm,Calm,-,N/A,,Overcast,0,2013-05-21 17:39:00
4:01 AM,73.4,71.6,94,29.89,6.2,Calm,Calm,-,N/A,,Mostly Cloudy,0,2013-05-21 18:01:00
4:30 AM,73.4,71.6,94,29.89,6.2,Calm,Calm,-,N/A,,Mostly Cloudy,0,2013-05-21 18:30:00
5:00 AM,71.6,71.6,100,29.89,6.2,Calm,Calm,-,N/A,,Scattered Clouds,0,2013-05-21 19:00:00
5:30 AM,71.6,71.6,100,29.89,6.2,Calm,Calm,-,N/A,,Scattered Clouds,0,2013-05-21 19:30:00
5:42 AM,71.6,69.8,94,29.89,-9999.0,Calm,Calm,-,N/A,,Unknown,0,2013-05-21 19:42:00
6:00 AM,71,70,95,29.91,16,Calm,Calm,,,Fog,Patches of Fog,,2013-05-21 20:00:00
6:00 AM,69.8,69.8,100,29.89,6.2,Calm,Calm,-,N/A,Fog,Patches of Fog,0,2013-05-21 20:00:00
6:30 AM,71.6,71.6,100,29.89,6.2,NW,2.3,-,N/A,,Scattered Clouds,320,2013-05-21 20:30:00
7:00 AM,71,71,98,29.92,,West,2.3,,,,,270,2013-05-21 21:00:00
7:00 AM,71.6,69.8,94,29.92,6.2,West,2.3,-,N/A,,Scattered Clouds,270,2013-05-21 21:00:00
7:30 AM,71.6,71.6,100,29.92,6.2,Calm,Calm,-,N/A,,Scattered Clouds,0,2013-05-21 21:30:00
8:00 AM,73.4,71.6,94,29.92,6.2,Calm,Calm,-,N/A,,Mostly Cloudy,0,2013-05-21 22:00:00
8:30 AM,75.2,71.6,89,29.92,6.2,Calm,Calm,-,N/A,,Mostly Cloudy,0,2013-05-21 22:30:00
9:00 AM,78,72,78,29.94,16,Calm,Calm,,,,Partly Cloudy,,2013-05-21 23:00:00
9:00 AM,77.0,71.6,83,29.92,6.2,Calm,Calm,-,N/A,,Scattered Clouds,0,2013-05-21 23:00:00
9:30 AM,80.6,71.6,74,29.92,6.2,East,1.2,-,N/A,,Partly Cloudy,100,2013-05-21 23:30:00
10:00 AM,80,71,68,29.94,,ESE,4.6,,,,,120,2013-05-22 00:00:00
10:00 AM,80.6,71.6,74,29.92,6.2,ESE,4.6,-,N/A,,Partly Cloudy,120,2013-05-22 00:00:00
10:30 AM,78.8,69.8,74,29.92,6.2,NE,8.1,-,N/A,,Scattered Clouds,50,2013-05-22 00:30:00
11:00 AM,78.8,69.8,74,29.92,6.2,NE,8.1,-,N/A,,Scattered Clouds,50,2013-05-22 01:00:00
11:30 AM,80.6,69.8,70,29.92,6.2,NE,8.1,-,N/A,,Scattered Clouds,50,2013-05-22 01:30:00
12:00 PM,81,69,60,29.91,19,NNE,8.1,,,,Partly Cloudy,30,2013-05-22 02:00:00
12:00 PM,80.6,69.8,70,29.89,6.2,NNE,8.1,-,N/A,,Scattered Clouds,30,2013-05-22 02:00:00
12:30 PM,82.4,69.8,66,29.89,6.2,North,8.1,-,N/A,,Scattered Clouds,10,2013-05-22 02:30:00
1:00 PM,81,71,65,29.89,,North,9.2,,,,,10,2013-05-22 03:00:00
1:00 PM,80.6,71.6,74,29.89,6.2,North,9.2,-,N/A,,Partly Cloudy,10,2013-05-22 03:00:00
1:30 PM,80.6,71.6,74,29.86,6.2,North,10.4,-,N/A,,Mostly Cloudy,10,2013-05-22 03:30:00
2:00 PM,80.6,71.6,74,29.86,6.2,NNE,10.4,-,N/A,,Mostly Cloudy,20,2013-05-22 04:00:00
2:30 PM,80.6,71.6,74,29.86,6.2,NNE,9.2,-,N/A,,Mostly Cloudy,20,2013-05-22 04:30:00
3:00 PM,81,71,65,29.85,19,North,9.2,,,,Partly Cloudy,0,2013-05-22 05:00:00
3:00 PM,80.6,71.6,74,29.83,6.2,North,9.2,-,N/A,,Mostly Cloudy,360,2013-05-22 05:00:00
3:30 PM,80.6,71.6,74,29.83,6.2,North,11.5,-,N/A,,Mostly Cloudy,360,2013-05-22 05:30:00
4:00 PM,81,71,65,29.85,,North,10.4,,,,,0,2013-05-22 06:00:00
4:00 PM,80.6,71.6,74,29.83,6.2,North,10.4,-,N/A,,Scattered Clouds,360,2013-05-22 06:00:00
4:30 PM,78.8,71.6,78,29.83,6.2,North,11.5,-,N/A,,Scattered Clouds,360,2013-05-22 06:30:00
5:00 PM,78.8,71.6,78,29.83,6.2,North,10.4,-,N/A,,Scattered Clouds,360,2013-05-22 07:00:00
5:30 PM,77.0,71.6,83,29.86,6.2,North,8.1,-,N/A,,Scattered Clouds,350,2013-05-22 07:30:00
6:00 PM,77,72,79,29.86,,NNW,5.8,,,,,330,2013-05-22 08:00:00
6:00 PM,77.0,71.6,83,29.86,6.2,NNW,5.8,-,N/A,,Mostly Cloudy,330,2013-05-22 08:00:00
6:30 PM,77.0,71.6,83,29.86,6.2,NW,4.6,-,N/A,,Mostly Cloudy,310,2013-05-22 08:30:00
7:00 PM,78,72,77,29.88,,WNW,5.8,,,,,300,2013-05-22 09:00:00
7:00 PM,77.0,71.6,83,29.86,6.2,WNW,5.8,-,N/A,,Scattered Clouds,300,2013-05-22 09:00:00
7:30 PM,77.0,71.6,83,29.86,6.2,WNW,4.6,-,N/A,,Scattered Clouds,300,2013-05-22 09:30:00
8:00 PM,77.0,71.6,83,29.89,6.2,West,4.6,-,N/A,,Partly Cloudy,270,2013-05-22 10:00:00
8:30 PM,77.0,71.6,83,29.89,6.2,West,4.6,-,N/A,,Partly Cloudy,260,2013-05-22 10:30:00
9:00 PM,74,71,89,29.90,,WNW,4.6,,,,,290,2013-05-22 11:00:00
9:00 PM,75.2,71.6,89,29.89,6.2,WNW,4.6,-,N/A,,Scattered Clouds,290,2013-05-22 11:00:00
9:30 PM,73.4,71.6,94,29.89,6.2,WNW,5.8,-,N/A,,Scattered Clouds,290,2013-05-22 11:30:00
10:00 PM,74,71,89,29.90,,WNW,5.8,,,,,290,2013-05-22 12:00:00
10:00 PM,73.4,71.6,94,29.89,6.2,WNW,5.8,-,N/A,,Partly Cloudy,290,2013-05-22 12:00:00
10:30 PM,75.2,69.8,83,29.89,6.2,WNW,6.9,-,N/A,,Partly Cloudy,290,2013-05-22 12:30:00
11:00 PM,75.2,69.8,83,29.89,6.2,West,6.9,-,N/A,,Partly Cloudy,280,2013-05-22 13:00:00
11:30 PM,75.2,69.8,83,29.89,6.2,West,5.8,-,N/A,,Scattered Clouds,270,2013-05-22 13:30:00